Time,TemperatureF,DewpointF,PressureIn,WindDirection,WindDirectionDegrees,WindSpeedMPH,WindSpeedGustMPH,Humidity,HourlyPrecipIn,Conditions,Clouds,dailyrainin,SoftwareType,DateUTC
2013-08-06 00:03:00,-999.0,-99.9,-100.00,NE,56,9.0,14.0,-999,-99.99,,,-99.99,,2013-08-06 00:03:00,
2013-08-06 00:45:00,65.0,41.0,-100.00,ENE,58,8.0,11.0,41,0.00,,,-99.99,,2013-08-06 00:45:00,
2013-08-06 00:57:00,-999.0,-99.9,-100.00,ENE,65,14.0,18.0,-999,-99.99,,,-99.99,,2013-08-06 00:57:00,
2013-08-06 03:02:00,-999.0,-99.9,-100.00,ENE,78,18.0,22.0,-999,-99.99,,,-99.99,,2013-08-06 03:02:00,
2013-08-06 03:45:00,55.0,37.0,-100.00,East,92,12.0,14.0,51,0.00,,,-99.99,,2013-08-06 03:45:00,
2013-08-06 03:53:00,-999.0,-99.9,-100.00,East,95,11.0,14.0,-999,-99.99,,,-99.99,,2013-08-06 03:53:00,
2013-08-06 04:44:00,56.0,35.0,-100.00,ESE,106,6.0,11.0,45,0.00,,,-99.99,,2013-08-06 04:44:00,
2013-08-06 04:54:00,-999.0,-99.9,-100.00,NW,304,4.0,11.0,-999,-99.99,,,-99.99,,2013-08-06 04:54:00,
2013-08-06 05:43:00,57.0,34.0,-100.00,East,82,0.0,0.0,41,0.00,,,-99.99,,2013-08-06 05:43:00,
2013-08-06 07:43:00,53.0,36.0,-100.00,ENE,75,13.0,16.0,52,0.00,,,-99.99,,2013-08-06 07:43:00,
2013-08-06 08:43:00,49.0,37.0,-100.00,ENE,72,16.0,19.0,63,0.00,,,-99.99,,2013-08-06 08:43:00,
2013-08-06 09:02:00,-999.0,-99.9,-100.00,East,80,19.0,23.0,-999,-99.99,,,-99.99,,2013-08-06 09:02:00,
2013-08-06 09:12:00,-999.0,-99.9,-100.00,East,88,17.0,21.0,-999,-99.99,,,-99.99,,2013-08-06 09:12:00,
2013-08-06 09:43:00,-999.0,-99.9,-100.00,East,93,14.0,17.0,-999,-99.99,,,-99.99,,2013-08-06 09:43:00,
2013-08-06 11:43:00,50.0,37.0,-100.00,WSW,253,7.0,11.0,61,0.00,,,-99.99,,2013-08-06 11:43:00,
2013-08-06 12:01:00,50.0,37.0,-100.00,WSW,246,6.0,9.0,62,0.00,,,-99.99,,2013-08-06 12:01:00,
2013-08-06 12:43:00,49.0,38.0,-100.00,West,265,0.0,0.0,65,0.00,,,-99.99,,2013-08-06 12:43:00,
2013-08-06 13:22:00,-999.0,-99.9,-100.00,West,268,2.0,4.0,-999,-99.99,,,-99.99,,2013-08-06 13:22:00,
2013-08-06 13:42:00,50.0,37.0,-100.00,WSW,250,0.0,0.0,60,0.00,,,-99.99,,2013-08-06 13:42:00,
2013-08-06 14:42:00,54.0,36.0,-100.00,SW,224,0.0,0.0,49,0.00,,,-99.99,,2013-08-06 14:42:00,
2013-08-06 15:02:00,56.0,35.0,-100.00,WSW,247,0.0,0.0,46,0.00,,,-99.99,,2013-08-06 15:02:00,
2013-08-06 15:44:00,-999.0,-99.9,-100.00,NNE,24,0.0,3.0,-999,-99.99,,,-99.99,,2013-08-06 15:44:00,
2013-08-06 16:42:00,56.0,41.0,-100.00,ENE,72,11.0,16.0,56,0.00,,,-99.99,,2013-08-06 16:42:00,
2013-08-06 17:43:00,59.0,40.0,-100.00,East,88,12.0,17.0,49,0.00,,,-99.99,,2013-08-06 17:43:00,
2013-08-06 18:43:00,60.0,40.0,-100.00,East,92,13.0,20.0,48,0.00,,,-99.99,,2013-08-06 18:43:00,
2013-08-06 19:01:00,60.0,41.0,-100.00,East,93,13.0,18.0,49,0.00,,,-99.99,,2013-08-06 19:01:00,
2013-08-06 19:11:00,-999.0,-99.9,-100.00,East,80,16.0,21.0,-999,-99.99,,,-99.99,,2013-08-06 19:11:00,
2013-08-06 19:42:00,61.0,40.0,-100.00,East,82,16.0,22.0,45,0.00,,,-99.99,,2013-08-06 19:42:00,
2013-08-06 20:44:00,62.0,40.0,-100.00,ENE,68,15.0,23.0,43,0.00,,,-99.99,,2013-08-06 20:44:00,
2013-08-06 20:52:00,-999.0,-99.9,-100.00,ENE,71,14.0,20.0,-999,-99.99,,,-99.99,,2013-08-06 20:52:00,
2013-08-06 21:02:00,-999.0,-99.9,-100.00,ENE,62,15.0,19.0,-999,-99.99,,,-99.99,,2013-08-06 21:02:00,
2013-08-06 21:43:00,62.0,39.0,-100.00,NE,49,15.0,22.0,43,0.00,,,-99.99,,2013-08-06 21:43:00,
2013-08-06 22:01:00,63.0,39.0,-100.00,NE,54,16.0,22.0,41,0.00,,,-99.99,,2013-08-06 22:01:00,
2013-08-06 22:11:00,64.0,40.0,-100.00,ENE,61,15.0,22.0,42,0.00,,,-99.99,,2013-08-06 22:11:00,
2013-08-06 22:43:00,65.0,37.0,-100.00,NE,51,17.0,22.0,36,0.00,,,-99.99,,2013-08-06 22:43:00,
2013-08-06 23:01:00,65.0,35.0,-100.00,ENE,65,16.0,23.0,34,0.00,,,-99.99,,2013-08-06 23:01:00,
2013-08-06 23:33:00,-999.0,-99.9,-100.00,ENE,62,14.0,20.0,-999,-99.99,,,-99.99,,2013-08-06 23:33:00,
2013-08-06 23:43:00,64.0,34.0,-100.00,ENE,61,16.0,21.0,33,0.00,,,-99.99,,2013-08-06 23:43:00,